PRIVATE WETTERSTATION BILLIGHEIM-ALLFELD                       ZURCK
Wetterdaten: Mittwoch, 22.02.2017
Datum Zeit Temp. A. Temp. A. min Temp. A. max Feuchte A. Luftdruck Regen Wind Richtung Richtung Sonnenschein ET Solar Taupunkt Windchill Windben Empfang
22.02.2017 00:00 8,8 C 8,8 C 8,8 C 92 % 1015,8 hPa 0,0 l/m 11,3 km/h (2 Bft) SW 225 0 min 0,000 mm 0 W/m 7,6 C 5,5 C 24,1 km/h (4 Bft) 100 %
22.02.2017 00:10 8,8 C 8,8 C 8,8 C 92 % 1015,8 hPa 0,0 l/m 12,9 km/h (3 Bft) SW 225 0 min 0,000 mm 0 W/m 7,6 C 4,7 C 25,7 km/h (4 Bft) 100 %
22.02.2017 00:20 8,8 C 8,8 C 8,8 C 92 % 1015,7 hPa 0,0 l/m 12,9 km/h (3 Bft) SW 225 0 min 0,000 mm 0 W/m 7,6 C 4,7 C 24,1 km/h (4 Bft) 100 %
22.02.2017 00:30 8,8 C 8,8 C 8,8 C 92 % 1015,6 hPa 0,0 l/m 11,3 km/h (2 Bft) SW 225 0 min 0,000 mm 0 W/m 7,6 C 5,5 C 22,5 km/h (4 Bft) 100 %
22.02.2017 00:40 8,8 C 8,7 C 8,8 C 92 % 1015,5 hPa 0,0 l/m 11,3 km/h (2 Bft) SW 225 0 min 0,000 mm 0 W/m 7,6 C 5,5 C 27,4 km/h (4 Bft) 100 %
22.02.2017 00:50 8,7 C 8,7 C 8,8 C 92 % 1015,4 hPa 0,0 l/m 11,3 km/h (2 Bft) SW 225 0 min 0,000 mm 0 W/m 7,5 C 5,4 C 22,5 km/h (4 Bft) 100 %
22.02.2017 01:00 8,7 C 8,7 C 8,7 C 92 % 1015,2 hPa 0,2 l/m 11,3 km/h (2 Bft) SW 225 0 min 0,000 mm 0 W/m 7,5 C 5,4 C 22,5 km/h (4 Bft) 100 %
22.02.2017 01:10 8,7 C 8,7 C 8,7 C 92 % 1015,2 hPa 0,0 l/m 9,7 km/h (2 Bft) SW 225 0 min 0,000 mm 0 W/m 7,5 C 6,3 C 20,9 km/h (4 Bft) 100 %
22.02.2017 01:20 8,7 C 8,7 C 8,7 C 92 % 1015,1 hPa 0,2 l/m 12,9 km/h (3 Bft) SW 225 0 min 0,000 mm 0 W/m 7,5 C 4,6 C 24,1 km/h (4 Bft) 100 %
22.02.2017 01:30 8,7 C 8,7 C 8,7 C 92 % 1015,0 hPa 0,0 l/m 14,5 km/h (3 Bft) SW 225 0 min 0,000 mm 0 W/m 7,5 C 3,8 C 25,7 km/h (4 Bft) 90 %
22.02.2017 01:40 8,7 C 8,7 C 8,7 C 92 % 1014,9 hPa 0,0 l/m 11,3 km/h (2 Bft) SW 225 0 min 0,000 mm 0 W/m 7,5 C 5,4 C 27,4 km/h (4 Bft) 100 %
22.02.2017 01:50 8,8 C 8,7 C 8,8 C 92 % 1014,9 hPa 0,0 l/m 16,1 km/h (3 Bft) SW 225 0 min 0,000 mm 0 W/m 7,6 C 3,2 C 37,0 km/h (5 Bft) 100 %
22.02.2017 02:00 8,8 C 8,8 C 8,8 C 92 % 1014,7 hPa 0,0 l/m 16,1 km/h (3 Bft) SW 225 0 min 0,025 mm 0 W/m 7,6 C 3,2 C 35,4 km/h (5 Bft) 100 %
22.02.2017 02:10 8,9 C 8,8 C 8,9 C 92 % 1014,6 hPa 0,0 l/m 16,1 km/h (3 Bft) W-SW 247 0 min 0,000 mm 0 W/m 7,7 C 3,3 C 33,8 km/h (5 Bft) 100 %
22.02.2017 02:20 8,9 C 8,8 C 8,9 C 92 % 1014,4 hPa 0,0 l/m 16,1 km/h (3 Bft) SW 225 0 min 0,000 mm 0 W/m 7,7 C 3,3 C 35,4 km/h (5 Bft) 100 %
22.02.2017 02:30 8,9 C 8,9 C 8,9 C 92 % 1014,2 hPa 0,0 l/m 14,5 km/h (3 Bft) SW 225 0 min 0,000 mm 0 W/m 7,7 C 4,0 C 37,0 km/h (5 Bft) 100 %
22.02.2017 02:40 8,9 C 8,9 C 9,0 C 92 % 1014,2 hPa 0,0 l/m 16,1 km/h (3 Bft) SW 225 0 min 0,000 mm 0 W/m 7,7 C 3,3 C 30,6 km/h (5 Bft) 100 %
22.02.2017 02:50 9,0 C 8,9 C 9,0 C 92 % 1014,0 hPa 0,0 l/m 17,7 km/h (3 Bft) SW 225 0 min 0,000 mm 0 W/m 7,8 C 2,8 C 32,2 km/h (5 Bft) 100 %
22.02.2017 03:00 9,0 C 9,0 C 9,0 C 92 % 1013,9 hPa 0,2 l/m 14,5 km/h (3 Bft) SW 225 0 min 0,025 mm 0 W/m 7,8 C 4,1 C 27,4 km/h (4 Bft) 100 %
22.02.2017 03:10 9,1 C 9,0 C 9,1 C 92 % 1013,8 hPa 0,0 l/m 17,7 km/h (3 Bft) SW 225 0 min 0,000 mm 0 W/m 7,9 C 2,9 C 33,8 km/h (5 Bft) 100 %
22.02.2017 03:20 9,1 C 9,0 C 9,1 C 92 % 1013,7 hPa 0,2 l/m 14,5 km/h (3 Bft) SW 225 0 min 0,000 mm 0 W/m 7,9 C 4,3 C 37,0 km/h (5 Bft) 100 %
22.02.2017 03:30 9,1 C 9,0 C 9,1 C 96 % 1013,5 hPa 0,0 l/m 17,7 km/h (3 Bft) W-SW 247 0 min 0,000 mm 0 W/m 8,5 C 2,9 C 38,6 km/h (5 Bft) 100 %
22.02.2017 03:40 9,1 C 9,1 C 9,1 C 92 % 1013,5 hPa 0,0 l/m 17,7 km/h (3 Bft) SW 225 0 min 0,000 mm 0 W/m 7,9 C 2,9 C 33,8 km/h (5 Bft) 100 %
22.02.2017 03:50 9,1 C 9,0 C 9,1 C 92 % 1013,5 hPa 0,2 l/m 16,1 km/h (3 Bft) SW 225 0 min 0,000 mm 0 W/m 7,9 C 3,6 C 37,0 km/h (5 Bft) 100 %
22.02.2017 04:00 9,1 C 9,1 C 9,1 C 92 % 1013,4 hPa 0,0 l/m 19,3 km/h (3 Bft) SW 225 0 min 0,025 mm 0 W/m 7,9 C 2,4 C 35,4 km/h (5 Bft) 100 %
22.02.2017 04:10 9,1 C 9,1 C 9,1 C 92 % 1013,3 hPa 0,2 l/m 17,7 km/h (3 Bft) SW 225 0 min 0,000 mm 0 W/m 7,9 C 2,9 C 40,2 km/h (6 Bft) 100 %
22.02.2017 04:20 9,0 C 9,0 C 9,1 C 92 % 1013,2 hPa 0,0 l/m 16,1 km/h (3 Bft) SW 225 0 min 0,000 mm 0 W/m 7,8 C 3,5 C 38,6 km/h (5 Bft) 100 %
22.02.2017 04:30 9,0 C 9,0 C 9,0 C 92 % 1013,2 hPa 0,0 l/m 16,1 km/h (3 Bft) SW 225 0 min 0,000 mm 0 W/m 7,8 C 3,5 C 30,6 km/h (5 Bft) 100 %
22.02.2017 04:40 9,0 C 8,9 C 9,0 C 92 % 1013,1 hPa 0,2 l/m 17,7 km/h (3 Bft) SW 225 0 min 0,000 mm 0 W/m 7,8 C 2,8 C 35,4 km/h (5 Bft) 100 %
22.02.2017 04:50 9,0 C 8,9 C 9,0 C 92 % 1013,2 hPa 0,0 l/m 16,1 km/h (3 Bft) SW 225 0 min 0,000 mm 0 W/m 7,8 C 3,5 C 32,2 km/h (5 Bft) 100 %
22.02.2017 05:00 9,0 C 8,9 C 9,0 C 92 % 1013,4 hPa 0,0 l/m 17,7 km/h (3 Bft) W-SW 247 0 min 0,025 mm 0 W/m 7,8 C 2,8 C 35,4 km/h (5 Bft) 100 %
22.02.2017 05:10 9,0 C 9,0 C 9,0 C 92 % 1013,1 hPa 0,0 l/m 14,5 km/h (3 Bft) W-SW 247 0 min 0,000 mm 0 W/m 7,8 C 4,1 C 29,0 km/h (5 Bft) 100 %
22.02.2017 05:20 9,0 C 9,0 C 9,0 C 92 % 1013,2 hPa 0,0 l/m 16,1 km/h (3 Bft) W-SW 247 0 min 0,000 mm 0 W/m 7,8 C 3,5 C 37,0 km/h (5 Bft) 100 %
22.02.2017 05:30 9,0 C 9,0 C 9,0 C 92 % 1013,1 hPa 0,0 l/m 16,1 km/h (3 Bft) W-SW 247 0 min 0,000 mm 0 W/m 7,8 C 3,5 C 35,4 km/h (5 Bft) 100 %
22.02.2017 05:40 9,0 C 9,0 C 9,0 C 92 % 1012,9 hPa 0,0 l/m 16,1 km/h (3 Bft) SW 225 0 min 0,000 mm 0 W/m 7,8 C 3,5 C 35,4 km/h (5 Bft) 100 %
22.02.2017 05:50 9,0 C 9,0 C 9,0 C 92 % 1012,7 hPa 0,0 l/m 16,1 km/h (3 Bft) SW 225 0 min 0,000 mm 0 W/m 7,8 C 3,5 C 35,4 km/h (5 Bft) 100 %
22.02.2017 06:00 8,9 C 8,9 C 9,0 C 92 % 1012,5 hPa 0,0 l/m 17,7 km/h (3 Bft) SW 225 0 min 0,025 mm 0 W/m 7,7 C 2,7 C 46,7 km/h (6 Bft) 100 %
22.02.2017 06:10 8,9 C 8,9 C 9,0 C 92 % 1012,5 hPa 0,0 l/m 19,3 km/h (3 Bft) SW 225 0 min 0,000 mm 0 W/m 7,7 C 2,1 C 35,4 km/h (5 Bft) 100 %
22.02.2017 06:20 8,9 C 8,9 C 9,0 C 92 % 1012,4 hPa 0,0 l/m 17,7 km/h (3 Bft) W-SW 247 0 min 0,000 mm 0 W/m 7,7 C 2,7 C 33,8 km/h (5 Bft) 100 %
22.02.2017 06:30 9,0 C 8,9 C 9,0 C 92 % 1012,4 hPa 0,0 l/m 22,5 km/h (4 Bft) SW 225 0 min 0,000 mm 0 W/m 7,8 C 1,2 C 43,5 km/h (6 Bft) 100 %
22.02.2017 06:40 8,9 C 8,9 C 9,0 C 92 % 1012,4 hPa 0,0 l/m 19,3 km/h (3 Bft) SW 225 0 min 0,000 mm 0 W/m 7,7 C 2,1 C 41,8 km/h (6 Bft) 100 %
22.02.2017 06:50 8,9 C 8,9 C 8,9 C 92 % 1012,3 hPa 0,0 l/m 20,9 km/h (4 Bft) SW 225 0 min 0,000 mm 0 W/m 7,7 C 1,6 C 40,2 km/h (6 Bft) 100 %
22.02.2017 07:00 8,9 C 8,9 C 8,9 C 92 % 1012,2 hPa 0,0 l/m 20,9 km/h (4 Bft) SW 225 0 min 0,025 mm 0 W/m 7,7 C 1,6 C 38,6 km/h (5 Bft) 100 %
22.02.2017 07:10 8,9 C 8,9 C 8,9 C 92 % 1012,2 hPa 0,0 l/m 16,1 km/h (3 Bft) W-SW 247 0 min 0,000 mm 0 W/m 7,7 C 3,3 C 33,8 km/h (5 Bft) 100 %
22.02.2017 07:20 8,9 C 8,9 C 8,9 C 92 % 1012,2 hPa 0,0 l/m 19,3 km/h (3 Bft) SW 225 0 min 0,000 mm 0 W/m 7,7 C 2,1 C 38,6 km/h (5 Bft) 100 %
22.02.2017 07:30 8,9 C 8,9 C 8,9 C 92 % 1012,2 hPa 0,0 l/m 17,7 km/h (3 Bft) SW 225 0 min 0,000 mm 0 W/m 7,7 C 2,7 C 38,6 km/h (5 Bft) 100 %
22.02.2017 07:40 8,8 C 8,8 C 8,9 C 92 % 1012,3 hPa 0,0 l/m 17,7 km/h (3 Bft) SW 225 0 min 0,000 mm 5 W/m 7,6 C 2,6 C 33,8 km/h (5 Bft) 100 %
22.02.2017 07:50 8,8 C 8,8 C 8,9 C 92 % 1012,5 hPa 0,0 l/m 19,3 km/h (3 Bft) W-SW 247 0 min 0,000 mm 9 W/m 7,6 C 2,0 C 35,4 km/h (5 Bft) 100 %
22.02.2017 08:00 8,8 C 8,8 C 8,9 C 92 % 1012,7 hPa 0,0 l/m 14,5 km/h (3 Bft) SW 225 0 min 0,025 mm 12 W/m 7,6 C 3,9 C 29,0 km/h (5 Bft) 100 %
22.02.2017 08:10 8,8 C 8,8 C 8,8 C 92 % 1012,7 hPa 0,0 l/m 16,1 km/h (3 Bft) SW 225 0 min 0,000 mm 23 W/m 7,6 C 3,2 C 43,5 km/h (6 Bft) 100 %
22.02.2017 08:20 8,8 C 8,8 C 8,8 C 92 % 1012,8 hPa 0,2 l/m 14,5 km/h (3 Bft) SW 225 0 min 0,000 mm 19 W/m 7,6 C 3,9 C 32,2 km/h (5 Bft) 100 %
22.02.2017 08:30 8,7 C 8,7 C 8,8 C 92 % 1012,7 hPa 0,0 l/m 12,9 km/h (3 Bft) SW 225 0 min 0,000 mm 14 W/m 7,5 C 4,6 C 35,4 km/h (5 Bft) 100 %
22.02.2017 08:40 8,7 C 8,7 C 8,7 C 92 % 1012,7 hPa 0,8 l/m 11,3 km/h (2 Bft) SW 225 0 min 0,000 mm 5 W/m 7,5 C 5,4 C 27,4 km/h (4 Bft) 100 %
22.02.2017 08:50 8,6 C 8,6 C 8,7 C 92 % 1012,7 hPa 0,4 l/m 14,5 km/h (3 Bft) SW 225 0 min 0,000 mm 11 W/m 7,4 C 3,7 C 29,0 km/h (5 Bft) 100 %
22.02.2017 09:00 8,5 C 8,5 C 8,6 C 92 % 1012,7 hPa 0,4 l/m 14,5 km/h (3 Bft) W-SW 247 0 min 0,025 mm 21 W/m 7,3 C 3,5 C 38,6 km/h (5 Bft) 100 %
22.02.2017 09:10 8,4 C 8,4 C 8,5 C 92 % 1012,7 hPa 0,0 l/m 16,1 km/h (3 Bft) SW 225 0 min 0,000 mm 18 W/m 7,2 C 2,7 C 35,4 km/h (5 Bft) 100 %
22.02.2017 09:20 8,4 C 8,4 C 8,4 C 92 % 1012,7 hPa 0,0 l/m 17,7 km/h (3 Bft) SW 225 0 min 0,000 mm 23 W/m 7,2 C 2,1 C 30,6 km/h (5 Bft) 100 %
22.02.2017 09:30 8,3 C 8,3 C 8,4 C 92 % 1012,7 hPa 0,0 l/m 17,7 km/h (3 Bft) SW 225 0 min 0,000 mm 23 W/m 7,1 C 1,9 C 35,4 km/h (5 Bft) 100 %
22.02.2017 09:40 8,3 C 8,3 C 8,3 C 92 % 1012,6 hPa 0,0 l/m 20,9 km/h (4 Bft) SW 225 0 min 0,000 mm 23 W/m 7,1 C 0,8 C 38,6 km/h (5 Bft) 100 %
22.02.2017 09:50 8,3 C 8,3 C 8,3 C 92 % 1012,7 hPa 0,0 l/m 24,1 km/h (4 Bft) SW 225 0 min 0,000 mm 30 W/m 7,1 C -0,2 C 46,7 km/h (6 Bft) 100 %
22.02.2017 10:00 8,4 C 8,3 C 8,4 C 92 % 1012,7 hPa 0,0 l/m 19,3 km/h (3 Bft) SW 225 0 min 0,025 mm 40 W/m 7,2 C 1,5 C 40,2 km/h (6 Bft) 100 %
22.02.2017 10:10 8,4 C 8,4 C 8,4 C 92 % 1012,7 hPa 0,0 l/m 20,9 km/h (4 Bft) W-SW 247 0 min 0,000 mm 51 W/m 7,2 C 0,9 C 48,3 km/h (6 Bft) 89 %
22.02.2017 10:20 8,5 C 8,4 C 8,5 C 92 % 1012,7 hPa 0,0 l/m 20,9 km/h (4 Bft) W-SW 247 0 min 0,000 mm 69 W/m 7,3 C 1,0 C 37,0 km/h (5 Bft) 100 %
22.02.2017 10:30 8,5 C 8,5 C 8,5 C 92 % 1012,4 hPa 0,0 l/m 17,7 km/h (3 Bft) W-SW 247 0 min 0,000 mm 79 W/m 7,3 C 2,2 C 37,0 km/h (5 Bft) 99 %
22.02.2017 10:40 8,6 C 8,5 C 8,6 C 92 % 1012,5 hPa 0,0 l/m 19,3 km/h (3 Bft) SW 225 0 min 0,000 mm 62 W/m 7,4 C 1,7 C 41,8 km/h (6 Bft) 98 %
22.02.2017 10:50 8,5 C 8,5 C 8,6 C 92 % 1012,6 hPa 0,0 l/m 20,9 km/h (4 Bft) W-SW 247 0 min 0,000 mm 53 W/m 7,3 C 1,0 C 41,8 km/h (6 Bft) 99 %
22.02.2017 11:00 8,6 C 8,5 C 8,6 C 92 % 1012,5 hPa 0,0 l/m 12,9 km/h (3 Bft) W-SW 247 0 min 0,025 mm 49 W/m 7,4 C 4,4 C 25,7 km/h (4 Bft) 97 %
22.02.2017 11:10 8,6 C 8,5 C 8,6 C 92 % 1012,7 hPa 0,0 l/m 22,5 km/h (4 Bft) W-SW 247 0 min 0,000 mm 54 W/m 7,4 C 0,7 C 46,7 km/h (6 Bft) 98 %
22.02.2017 11:20 8,6 C 8,6 C 8,6 C 91 % 1012,8 hPa 0,0 l/m 29,0 km/h (5 Bft) W-SW 247 0 min 0,000 mm 42 W/m 7,2 C -1,1 C 51,5 km/h (7 Bft) 98 %
22.02.2017 11:30 8,6 C 8,6 C 8,6 C 91 % 1012,8 hPa 0,0 l/m 20,9 km/h (4 Bft) W-SW 247 0 min 0,000 mm 39 W/m 7,2 C 1,2 C 46,7 km/h (6 Bft) 97 %
22.02.2017 11:40 8,6 C 8,6 C 8,6 C 91 % 1012,8 hPa 0,0 l/m 20,9 km/h (4 Bft) W-SW 247 0 min 0,000 mm 49 W/m 7,2 C 1,2 C 40,2 km/h (6 Bft) 98 %
22.02.2017 11:50 8,6 C 8,6 C 8,6 C 91 % 1012,6 hPa 0,2 l/m 16,1 km/h (3 Bft) W-SW 247 0 min 0,000 mm 53 W/m 7,2 C 3,0 C 38,6 km/h (5 Bft) 97 %
22.02.2017 12:00 8,6 C 8,6 C 8,6 C 91 % 1012,7 hPa 0,0 l/m 17,7 km/h (3 Bft) W-SW 247 0 min 0,025 mm 46 W/m 7,2 C 2,3 C 38,6 km/h (5 Bft) 98 %
22.02.2017 12:10 8,6 C 8,5 C 8,6 C 91 % 1012,6 hPa 0,0 l/m 16,1 km/h (3 Bft) SW 225 0 min 0,000 mm 69 W/m 7,2 C 3,0 C 35,4 km/h (5 Bft) 97 %
22.02.2017 12:20 8,6 C 8,5 C 8,6 C 91 % 1012,4 hPa 0,0 l/m 14,5 km/h (3 Bft) W-SW 247 0 min 0,000 mm 69 W/m 7,2 C 3,7 C 29,0 km/h (5 Bft) 97 %
22.02.2017 12:30 8,6 C 8,6 C 8,6 C 90 % 1012,4 hPa 0,0 l/m 19,3 km/h (3 Bft) W-SW 247 0 min 0,000 mm 53 W/m 7,1 C 1,7 C 40,2 km/h (6 Bft) 98 %
22.02.2017 12:40 8,7 C 8,6 C 8,7 C 90 % 1012,0 hPa 0,0 l/m 22,5 km/h (4 Bft) W-SW 247 0 min 0,000 mm 54 W/m 7,2 C 0,8 C 51,5 km/h (7 Bft) 98 %
22.02.2017 12:50 8,7 C 8,7 C 8,7 C 89 % 1012,0 hPa 0,0 l/m 19,3 km/h (3 Bft) SW 225 0 min 0,000 mm 72 W/m 7,0 C 1,9 C 35,4 km/h (5 Bft) 98 %
22.02.2017 13:00 8,8 C 8,7 C 8,8 C 89 % 1012,1 hPa 0,0 l/m 20,9 km/h (4 Bft) W-SW 247 0 min 0,051 mm 53 W/m 7,1 C 1,4 C 45,1 km/h (6 Bft) 86 %
22.02.2017 13:10 8,8 C 8,8 C 8,8 C 88 % 1011,9 hPa 0,0 l/m 24,1 km/h (4 Bft) SW 225 0 min 0,000 mm 56 W/m 6,9 C 0,5 C 49,9 km/h (6 Bft) 97 %
22.02.2017 13:20 8,8 C 8,8 C 8,8 C 88 % 1012,0 hPa 0,0 l/m 19,3 km/h (3 Bft) W-SW 247 0 min 0,000 mm 42 W/m 6,9 C 2,0 C 41,8 km/h (6 Bft) 98 %
22.02.2017 13:30 8,8 C 8,8 C 8,8 C 87 % 1012,0 hPa 0,0 l/m 22,5 km/h (4 Bft) W-SW 247 0 min 0,000 mm 35 W/m 6,8 C 0,9 C 49,9 km/h (6 Bft) 97 %
22.02.2017 13:40 8,9 C 8,8 C 8,9 C 87 % 1011,9 hPa 0,0 l/m 17,7 km/h (3 Bft) W-SW 247 0 min 0,000 mm 42 W/m 6,9 C 2,7 C 41,8 km/h (6 Bft) 98 %
22.02.2017 13:50 8,9 C 8,9 C 8,9 C 87 % 1011,8 hPa 0,0 l/m 19,3 km/h (3 Bft) W-SW 247 0 min 0,000 mm 32 W/m 6,9 C 2,1 C 35,4 km/h (5 Bft) 98 %
22.02.2017 14:00 8,9 C 8,9 C 8,9 C 87 % 1011,6 hPa 0,0 l/m 16,1 km/h (3 Bft) W-SW 247 0 min 0,051 mm 30 W/m 6,9 C 3,3 C 32,2 km/h (5 Bft) 98 %
22.02.2017 14:10 8,8 C 8,8 C 8,9 C 87 % 1011,5 hPa 0,0 l/m 22,5 km/h (4 Bft) SW 225 0 min 0,000 mm 39 W/m 6,8 C 0,9 C 43,5 km/h (6 Bft) 96 %
22.02.2017 14:20 8,8 C 8,8 C 8,9 C 87 % 1011,5 hPa 0,0 l/m 17,7 km/h (3 Bft) SW 225 0 min 0,000 mm 42 W/m 6,8 C 2,6 C 46,7 km/h (6 Bft) 97 %
22.02.2017 14:30 8,7 C 8,7 C 8,8 C 88 % 1011,5 hPa 0,0 l/m 20,9 km/h (4 Bft) SW 225 0 min 0,000 mm 53 W/m 6,8 C 1,3 C 45,1 km/h (6 Bft) 98 %
22.02.2017 14:40 8,7 C 8,7 C 8,7 C 87 % 1011,4 hPa 0,0 l/m 27,4 km/h (4 Bft) SW 225 0 min 0,000 mm 26 W/m 6,7 C -0,6 C 49,9 km/h (6 Bft) 98 %
22.02.2017 14:50 8,6 C 8,6 C 8,7 C 87 % 1011,4 hPa 0,0 l/m 20,9 km/h (4 Bft) W-SW 247 0 min 0,000 mm 37 W/m 6,6 C 1,2 C 43,5 km/h (6 Bft) 98 %
22.02.2017 15:00 8,6 C 8,6 C 8,6 C 88 % 1011,3 hPa 0,0 l/m 20,9 km/h (4 Bft) SW 225 0 min 0,051 mm 28 W/m 6,7 C 1,2 C 43,5 km/h (6 Bft) 98 %
22.02.2017 15:10 8,6 C 8,6 C 8,6 C 87 % 1011,3 hPa 0,0 l/m 24,1 km/h (4 Bft) SW 225 0 min 0,000 mm 30 W/m 6,6 C 0,2 C 48,3 km/h (6 Bft) 98 %
22.02.2017 15:20 8,6 C 8,6 C 8,6 C 87 % 1011,3 hPa 0,0 l/m 20,9 km/h (4 Bft) W-SW 247 0 min 0,000 mm 28 W/m 6,6 C 1,2 C 41,8 km/h (6 Bft) 97 %
22.02.2017 15:30 8,6 C 8,6 C 8,6 C 87 % 1011,2 hPa 0,0 l/m 24,1 km/h (4 Bft) W-SW 247 0 min 0,000 mm 21 W/m 6,6 C 0,2 C 45,1 km/h (6 Bft) 97 %
22.02.2017 15:40 8,6 C 8,6 C 8,6 C 87 % 1011,2 hPa 0,0 l/m 22,5 km/h (4 Bft) SW 225 0 min 0,000 mm 28 W/m 6,6 C 0,7 C 53,1 km/h (7 Bft) 98 %
22.02.2017 15:50 8,6 C 8,6 C 8,6 C 87 % 1011,2 hPa 0,0 l/m 22,5 km/h (4 Bft) SW 225 0 min 0,000 mm 26 W/m 6,6 C 0,7 C 38,6 km/h (5 Bft) 98 %
22.02.2017 16:00 8,6 C 8,6 C 8,6 C 87 % 1011,2 hPa 0,0 l/m 19,3 km/h (3 Bft) W-SW 247 0 min 0,051 mm 21 W/m 6,6 C 1,7 C 41,8 km/h (6 Bft) 98 %
22.02.2017 16:10 8,6 C 8,6 C 8,6 C 86 % 1011,1 hPa 0,0 l/m 20,9 km/h (4 Bft) SW 225 0 min 0,000 mm 12 W/m 6,4 C 1,2 C 40,2 km/h (6 Bft) 98 %
22.02.2017 16:20 8,6 C 8,6 C 8,6 C 86 % 1011,1 hPa 0,0 l/m 19,3 km/h (3 Bft) SW 225 0 min 0,000 mm 21 W/m 6,4 C 1,7 C 43,5 km/h (6 Bft) 98 %
22.02.2017 16:30 8,6 C 8,6 C 8,6 C 86 % 1011,1 hPa 0,0 l/m 20,9 km/h (4 Bft) SW 225 0 min 0,000 mm 26 W/m 6,4 C 1,2 C 46,7 km/h (6 Bft) 97 %
22.02.2017 16:40 8,7 C 8,6 C 8,7 C 86 % 1010,9 hPa 0,0 l/m 24,1 km/h (4 Bft) SW 225 0 min 0,000 mm 19 W/m 6,5 C 0,3 C 48,3 km/h (6 Bft) 98 %
22.02.2017 16:50 8,7 C 8,7 C 8,7 C 85 % 1010,9 hPa 0,0 l/m 25,7 km/h (4 Bft) SW 225 0 min 0,000 mm 19 W/m 6,3 C -0,1 C 53,1 km/h (7 Bft) 98 %
22.02.2017 17:00 8,8 C 8,7 C 8,8 C 85 % 1010,6 hPa 0,0 l/m 22,5 km/h (4 Bft) W-SW 247 0 min 0,051 mm 18 W/m 6,4 C 0,9 C 49,9 km/h (6 Bft) 98 %
22.02.2017 17:10 8,8 C 8,8 C 8,8 C 85 % 1010,8 hPa 0,0 l/m 22,5 km/h (4 Bft) SW 225 0 min 0,000 mm 16 W/m 6,4 C 0,9 C 45,1 km/h (6 Bft) 97 %
22.02.2017 17:20 8,7 C 8,7 C 8,8 C 85 % 1010,9 hPa 0,0 l/m 22,5 km/h (4 Bft) W-SW 247 0 min 0,000 mm 9 W/m 6,3 C 0,8 C 43,5 km/h (6 Bft) 98 %
22.02.2017 17:30 8,7 C 8,7 C 8,8 C 85 % 1010,7 hPa 0,0 l/m 20,9 km/h (4 Bft) SW 225 0 min 0,000 mm 5 W/m 6,3 C 1,3 C 38,6 km/h (5 Bft) 98 %
22.02.2017 17:40 8,7 C 8,7 C 8,7 C 85 % 1011,0 hPa 0,0 l/m 24,1 km/h (4 Bft) SW 225 0 min 0,000 mm 0 W/m 6,3 C 0,3 C 46,7 km/h (6 Bft) 97 %
22.02.2017 17:50 8,7 C 8,7 C 8,7 C 85 % 1011,1 hPa 0,0 l/m 25,7 km/h (4 Bft) SW 225 0 min 0,000 mm 0 W/m 6,3 C -0,1 C 46,7 km/h (6 Bft) 98 %
22.02.2017 18:00 8,6 C 8,6 C 8,7 C 86 % 1011,1 hPa 0,0 l/m 17,7 km/h (3 Bft) SW 225 0 min 0,025 mm 0 W/m 6,4 C 2,3 C 38,6 km/h (5 Bft) 98 %
22.02.2017 18:10 8,6 C 8,6 C 8,6 C 86 % 1010,9 hPa 0,0 l/m 19,3 km/h (3 Bft) W-SW 247 0 min 0,000 mm 0 W/m 6,4 C 1,7 C 41,8 km/h (6 Bft) 98 %
22.02.2017 18:20 8,5 C 8,5 C 8,6 C 86 % 1010,6 hPa 0,0 l/m 20,9 km/h (4 Bft) SW 225 0 min 0,000 mm 0 W/m 6,3 C 1,0 C 41,8 km/h (6 Bft) 98 %
22.02.2017 18:30 8,5 C 8,5 C 8,6 C 86 % 1010,7 hPa 0,0 l/m 22,5 km/h (4 Bft) SW 225 0 min 0,000 mm 0 W/m 6,3 C 0,5 C 45,1 km/h (6 Bft) 97 %
22.02.2017 18:40 8,4 C 8,4 C 8,5 C 86 % 1011,0 hPa 0,0 l/m 22,5 km/h (4 Bft) SW 225 0 min 0,000 mm 0 W/m 6,2 C 0,4 C 45,1 km/h (6 Bft) 98 %
22.02.2017 18:50 8,5 C 8,4 C 8,5 C 86 % 1010,7 hPa 0,0 l/m 24,1 km/h (4 Bft) W-SW 247 0 min 0,000 mm 0 W/m 6,3 C 0,1 C 43,5 km/h (6 Bft) 97 %
22.02.2017 19:00 8,4 C 8,4 C 8,5 C 86 % 1010,9 hPa 0,0 l/m 20,9 km/h (4 Bft) SW 225 0 min 0,025 mm 0 W/m 6,2 C 0,9 C 43,5 km/h (6 Bft) 98 %
22.02.2017 19:10 8,5 C 8,4 C 8,5 C 86 % 1010,8 hPa 0,0 l/m 22,5 km/h (4 Bft) SW 225 0 min 0,000 mm 0 W/m 6,3 C 0,5 C 49,9 km/h (6 Bft) 97 %
22.02.2017 19:30 8,4 C 8,4 C 8,5 C 86 % 1010,8 hPa 0,0 l/m 17,6 km/h (3 Bft) SW 217 0 min 0,004 mm 0 W/m 6,2 C 2,1 C 35,4 km/h (5 Bft) 99 %
22.02.2017 19:40 8,4 C 8,4 C 8,4 C 86 % 1010,9 hPa 0,0 l/m 19,5 km/h (3 Bft) W 263 0 min 0,000 mm 0 W/m 6,2 C 1,4 C 43,5 km/h (6 Bft) 100 %
22.02.2017 19:50 8,4 C 8,4 C 8,4 C 86 % 1011,0 hPa 0,0 l/m 17,3 km/h (3 Bft) SW 219 0 min 0,000 mm 0 W/m 6,2 C 2,2 C 33,8 km/h (5 Bft) 99 %
22.02.2017 20:00 8,4 C 8,3 C 8,4 C 86 % 1011,1 hPa 0,0 l/m 19,8 km/h (3 Bft) W 263 0 min 0,026 mm 0 W/m 6,2 C 1,3 C 40,2 km/h (6 Bft) 99 %
22.02.2017 20:10 8,3 C 8,3 C 8,4 C 86 % 1010,9 hPa 0,0 l/m 18,3 km/h (3 Bft) SW 223 0 min 0,000 mm 0 W/m 6,1 C 1,7 C 38,6 km/h (5 Bft) 98 %
22.02.2017 20:20 8,3 C 8,3 C 8,4 C 86 % 1010,9 hPa 0,0 l/m 20,7 km/h (4 Bft) SW 224 0 min 0,000 mm 0 W/m 6,1 C 0,9 C 43,5 km/h (6 Bft) 98 %
22.02.2017 20:30 8,3 C 8,3 C 8,3 C 86 % 1011,0 hPa 0,0 l/m 19,6 km/h (3 Bft) S 178 0 min 0,000 mm 0 W/m 6,1 C 1,2 C 38,6 km/h (5 Bft) 98 %
22.02.2017 20:40 8,3 C 8,3 C 8,3 C 86 % 1011,0 hPa 0,0 l/m 21,9 km/h (4 Bft) W 268 0 min 0,000 mm 0 W/m 6,1 C 0,5 C 41,8 km/h (6 Bft) 98 %
22.02.2017 20:50 8,3 C 8,3 C 8,3 C 86 % 1010,9 hPa 0,0 l/m 24,0 km/h (4 Bft) W 261 0 min 0,000 mm 0 W/m 6,1 C -0,2 C 41,8 km/h (6 Bft) 97 %
22.02.2017 21:00 8,3 C 8,3 C 8,3 C 86 % 1010,8 hPa 0,0 l/m 24,4 km/h (4 Bft) W 268 0 min 0,025 mm 0 W/m 6,1 C -0,3 C 53,1 km/h (7 Bft) 98 %
22.02.2017 21:10 8,3 C 8,3 C 8,3 C 87 % 1010,9 hPa 0,0 l/m 19,3 km/h (3 Bft) W-SW 247 0 min 0,000 mm 0 W/m 6,3 C 1,3 C 38,6 km/h (5 Bft) 100 %
22.02.2017 21:20 8,3 C 8,3 C 8,3 C 87 % 1010,7 hPa 0,0 l/m 19,3 km/h (3 Bft) SW 225 0 min 0,000 mm 0 W/m 6,3 C 1,3 C 40,2 km/h (6 Bft) 100 %
22.02.2017 21:30 8,3 C 8,3 C 8,3 C 87 % 1010,8 hPa 0,0 l/m 24,1 km/h (4 Bft) W-SW 247 0 min 0,000 mm 0 W/m 6,3 C -0,2 C 45,1 km/h (6 Bft) 100 %
22.02.2017 21:40 8,3 C 8,3 C 8,3 C 87 % 1010,7 hPa 0,0 l/m 17,7 km/h (3 Bft) W-SW 247 0 min 0,000 mm 0 W/m 6,3 C 1,9 C 37,0 km/h (5 Bft) 100 %
22.02.2017 21:50 8,3 C 8,3 C 8,3 C 87 % 1010,9 hPa 0,0 l/m 19,3 km/h (3 Bft) SW 225 0 min 0,000 mm 0 W/m 6,3 C 1,3 C 40,2 km/h (6 Bft) 100 %
22.02.2017 22:00 8,3 C 8,3 C 8,3 C 87 % 1010,9 hPa 0,0 l/m 19,3 km/h (3 Bft) W-SW 247 0 min 0,025 mm 0 W/m 6,3 C 1,3 C 35,4 km/h (5 Bft) 100 %
22.02.2017 22:10 8,3 C 8,3 C 8,3 C 87 % 1010,9 hPa 0,0 l/m 19,3 km/h (3 Bft) W-SW 247 0 min 0,000 mm 0 W/m 6,3 C 1,3 C 40,2 km/h (6 Bft) 100 %
22.02.2017 22:20 8,3 C 8,3 C 8,3 C 87 % 1010,8 hPa 0,0 l/m 20,9 km/h (4 Bft) W-SW 247 0 min 0,000 mm 0 W/m 6,3 C 0,8 C 41,8 km/h (6 Bft) 100 %
22.02.2017 22:30 8,3 C 8,3 C 8,3 C 87 % 1010,9 hPa 0,0 l/m 17,7 km/h (3 Bft) W-SW 247 0 min 0,000 mm 0 W/m 6,3 C 1,9 C 40,2 km/h (6 Bft) 100 %
22.02.2017 22:40 8,3 C 8,3 C 8,3 C 88 % 1010,9 hPa 0,0 l/m 17,7 km/h (3 Bft) W-SW 247 0 min 0,000 mm 0 W/m 6,4 C 1,9 C 37,0 km/h (5 Bft) 100 %
22.02.2017 22:50 8,3 C 8,3 C 8,3 C 88 % 1010,8 hPa 0,0 l/m 17,7 km/h (3 Bft) W-SW 247 0 min 0,000 mm 0 W/m 6,4 C 1,9 C 35,4 km/h (5 Bft) 100 %
22.02.2017 23:00 8,2 C 8,2 C 8,3 C 88 % 1010,8 hPa 0,0 l/m 20,9 km/h (4 Bft) SW 225 0 min 0,025 mm 0 W/m 6,3 C 0,7 C 46,7 km/h (6 Bft) 99 %
22.02.2017 23:10 8,2 C 8,2 C 8,2 C 88 % 1010,8 hPa 0,0 l/m 20,9 km/h (4 Bft) SW 225 0 min 0,000 mm 0 W/m 6,3 C 0,7 C 53,1 km/h (7 Bft) 100 %
22.02.2017 23:20 8,2 C 8,2 C 8,2 C 88 % 1010,8 hPa 0,0 l/m 22,5 km/h (4 Bft) W-SW 247 0 min 0,000 mm 0 W/m 6,3 C 0,1 C 43,5 km/h (6 Bft) 100 %
22.02.2017 23:30 8,2 C 8,1 C 8,2 C 88 % 1010,8 hPa 0,0 l/m 16,1 km/h (3 Bft) W-SW 247 0 min 0,000 mm 0 W/m 6,3 C 2,5 C 41,8 km/h (6 Bft) 100 %
22.02.2017 23:40 8,1 C 8,1 C 8,2 C 88 % 1010,6 hPa 0,0 l/m 14,5 km/h (3 Bft) W-SW 247 0 min 0,000 mm 0 W/m 6,2 C 3,1 C 40,2 km/h (6 Bft) 100 %
22.02.2017 23:50 8,1 C 8,1 C 8,1 C 88 % 1010,5 hPa 0,0 l/m 19,3 km/h (3 Bft) SW 225 0 min 0,000 mm 0 W/m 6,2 C 1,1 C 41,8 km/h (6 Bft) 100 %
_ Min-Zeit 23:30 23:30 23:50 16:50 23:50 - 01:10 - - - - - 20:10 11:20 01:10 13:00
Minimum _ 8,1 C 8,1 C 8,1 C 85 % 1010,5 hPa - 9,7 km/h (2 Bft) - - - - - 6,1 C -1,1 C 20,9 km/h (4 Bft) 86 %
_ Max-Zeit 03:10 03:40 03:10 03:30 00:00 08:40 11:20 - - 00:00 13:00 10:30 03:30 01:10 15:40 00:00
Maximum _ 9,1 C 9,1 C 9,1 C 96 % 1015,8 hPa 0,8 l/m 29,0 km/h
W-SW (5 Bft)
- - 0 min 0,051 mm 79 W/m 8,5 C 6,3 C 53,1 km/h
S-SW (7 Bft)
100 %
Durchschnitt _ 8,7 C 8,6 C 8,7 C 90 % 1012,3 hPa #3,4 l/m 18,7 km/h (3 Bft) SW - #0 min. #0,685 mm 34 W/m 7,0 C 2,1 C 38,7 km/h (5 Bft) 99 %
PRIVATE WETTERSTATION BILLIGHEIM-ALLFELD - www.neckar-odenwald-wetter.de - Holger Sonntag